Theta_e
329 327 329 328 328 327 325 325 326 329 330 330 330 329 330 330 331 331 332 331 329 329 327 328 329 329 331 332 334 336 333 333 332 330 327 328 325 327 331 329 330 332 331 329 327 323 320 317 318 324 326 329 328 328 328 328 328 330 331 332 333 333 331
329 328 327 326 326 327 327 326 327 327 329 329 329 329 329 329 329 330 331 330 329 328 326 326 329 330 331 332 335 334 334 333 333 333 331 329 327 327 327 328 326 330 328 328 328 327 321 318 317 319 320 324 326 327 329 329 327 328 330 332 331 329 326
326 325 326 325 326 326 326 326 325 326 327 328 329 329 329 329 329 329 329 328 328 326 326 327 329 330 330 330 331 332 334 334 334 333 332 332 331 330 330 328 327 326 324 327 325 326 324 323 317 317 319 319 317 320 325 325 326 326 325 326 326 324 322
326 326 324 325 324 325 323 324 326 326 327 327 327 328 327 327 329 328 327 326 327 327 327 327 328 326 328 329 329 330 330 330 332 334 332 332 332 329 329 329 326 325 325 322 324 321 323 322 322 318 319 319 316 316 320 323 324 322 322 324 324 322 322
327 326 325 325 324 323 324 324 326 326 327 326 325 324 325 326 326 325 325 326 328 329 328 328 327 325 325 325 325 327 327 329 330 330 330 332 332 330 328 329 329 331 325 324 325 324 323 322 322 317 316 317 316 316 317 320 320 320 319 319 320 321 321
327 326 325 325 326 324 323 323 324 324 324 323 322 323 325 325 325 326 325 324 326 329 328 326 326 325 324 324 324 324 325 326 327 328 327 327 327 325 325 327 326 327 327 328 327 327 328 327 321 317 317 318 314 314 315 316 314 316 318 318 319 320 320
329 327 326 325 324 323 323 323 324 323 323 323 321 321 323 323 323 325 325 325 325 325 325 326 327 325 324 320 323 324 323 324 325 326 325 326 326 326 326 323 324 323 324 326 327 329 329 323 319 318 317 317 317 314 315 314 314 311 313 316 319 320 320
328 326 325 325 325 323 324 324 324 324 323 323 321 323 324 324 324 324 324 324 324 325 325 325 324 325 324 320 322 323 322 323 322 321 321 323 322 321 322 320 321 320 319 320 323 324 324 324 322 320 319 315 314 315 313 312 312 311 310 313 316 317 317
328 328 325 325 325 325 325 324 324 324 323 322 323 324 323 323 322 322 322 322 322 323 324 323 323 323 323 321 321 322 320 320 322 321 320 321 321 321 321 320 318 317 319 318 319 321 322 323 322 321 319 316 310 307 311 310 311 308 311 309 311 314 315
329 326 325 326 325 326 326 325 323 323 324 323 324 325 324 324 323 322 321 321 322 322 322 322 322 322 322 321 320 319 319 319 320 319 320 320 321 321 320 320 318 318 318 320 320 320 322 323 322 321 319 316 315 311 309 309 309 308 309 309 306 308 312
329 326 326 326 326 325 324 324 325 323 323 324 324 324 325 324 323 322 321 321 322 322 322 321 320 321 321 320 320 319 319 320 319 320 320 319 320 321 321 320 320 318 320 319 319 320 319 320 320 321 319 320 318 314 311 309 308 311 310 311 309 307 309
330 326 327 328 327 324 324 323 323 323 324 324 323 325 324 322 323 323 322 320 321 321 322 322 321 321 320 319 320 319 320 319 318 318 320 321 321 321 321 320 320 319 321 320 320 320 321 319 316 315 316 319 320 320 315 313 309 311 312 309 308 309 309
330 326 325 326 325 324 324 323 323 323 324 323 323 323 322 321 323 322 322 321 321 321 321 322 322 321 322 321 320 319 320 320 318 318 319 320 318 320 320 319 320 320 320 318 319 318 317 318 319 316 317 317 317 319 318 315 312 308 311 309 308 309 310
330 328 324 324 322 324 326 325 326 325 323 323 323 322 321 321 321 322 321 321 321 322 322 322 323 323 322 320 320 321 320 318 316 315 316 319 319 319 316 316 317 318 319 318 316 316 315 315 316 317 317 316 315 318 317 315 311 308 310 313 312 309 312
331 329 326 324 323 325 325 324 326 325 324 323 323 320 319 321 322 321 321 321 321 321 322 323 323 323 320 321 321 321 320 318 318 318 318 316 317 317 319 317 316 318 318 317 320 315 314 314 314 313 313 315 314 315 317 313 310 309 308 312 311 312 312
330 328 328 325 323 326 324 322 322 323 325 322 322 321 320 321 321 321 322 322 321 321 322 322 325 324 322 322 321 322 321 320 319 319 318 317 316 317 317 317 316 317 319 318 317 316 317 317 316 314 316 316 316 317 316 317 315 313 312 311 314 311 312
331 330 330 326 325 327 325 323 323 324 325 324 321 322 322 321 321 321 321 322 322 322 322 324 324 323 323 322 321 321 322 322 321 320 319 317 316 317 319 318 317 318 318 317 317 316 317 318 318 317 318 319 319 317 319 319 318 317 315 311 313 310 312
330 330 329 328 325 326 325 326 324 324 325 324 324 324 323 322 322 322 323 322 322 322 323 323 324 324 325 325 324 323 322 322 323 322 321 321 321 319 319 319 319 318 318 318 316 316 317 318 317 317 316 316 316 317 318 317 318 317 315 313 313 314 315
330 329 329 328 328 324 324 326 325 324 324 322 324 325 323 324 323 323 323 322 323 323 323 324 324 324 324 325 326 325 325 325 324 323 323 323 320 322 322 320 321 320 318 319 318 318 318 318 316 317 315 315 314 316 317 317 317 317 315 314 314 313 315
329 330 328 328 329 329 324 323 324 323 325 324 324 324 324 323 324 323 323 323 324 324 324 325 326 328 328 325 326 326 326 325 325 325 325 324 324 323 323 323 323 322 321 320 320 319 319 318 317 317 317 316 315 316 315 316 316 316 315 315 315 314 313
329 328 327 327 327 328 328 324 323 323 323 323 324 323 323 323 324 324 324 324 325 325 325 325 326 327 328 328 327 325 325 325 324 324 325 324 326 325 325 325 324 324 323 322 321 321 320 318 318 316 318 316 316 314 314 314 315 314 314 315 313 312 313
328 328 326 326 326 326 326 328 327 325 325 324 325 324 323 323 323 323 324 326 326 326 326 326 326 326 326 324 327 327 327 325 325 324 325 324 325 326 326 326 325 326 328 321 312 314 315 316 320 318 319 317 316 315 314 314 314 314 314 314 313 314 312
328 327 327 326 326 327 327 327 327 327 328 328 325 324 322 323 323 324 324 326 325 326 327 327 316 304 307 326 327 326 327 327 325 325 325 325 326 326 326 326 327 320 314 313 310 304 303 307 309 316 321 320 317 315 314 313 313 314 313 312 313 312 311
325 325 326 326 326 327 326 327 326 326 326 326 323 323 327 325 326 326 325 323 323 325 327 325 300 301 303 299 320 327 326 326 325 325 324 322 323 323 325 325 326 321 318 314 315 300 302 301 302 301 300 300 303 311 315 313 313 314 311 312 313 312 311
325 325 325 324 325 325 326 325 325 323 323 323 323 324 324 324 324 323 322 322 322 322 323 301 299 300 299 298 300 321 325 325 324 322 318 320 319 322 323 324 324 324 324 322 322 319 308 300 299 299 298 298 296 292 295 308 311 312 313 312 312 312 312
325 324 325 325 325 325 324 324 323 323 322 322 324 324 323 324 323 323 323 322 324 323 320 296 296 295 298 296 295 303 322 323 322 319 319 315 317 317 319 322 323 322 324 318 319 322 321 316 299 297 299 297 296 296 292 291 295 308 310 310 311 312 312
324 325 325 324 324 323 323 322 323 323 323 322 320 320 322 324 321 322 322 323 321 320 318 295 295 294 296 294 294 298 323 324 322 321 318 319 320 319 319 318 318 320 322 322 321 323 320 319 316 312 311 312 313 303 293 293 293 294 302 308 310 310 313
324 325 325 324 325 322 322 322 322 323 323 321 320 321 324 325 324 324 324 321 319 319 315 289 292 291 292 292 293 294 323 324 322 321 320 319 319 319 319 319 318 317 319 321 322 320 321 318 319 319 317 315 315 312 311 310 309 309 309 310 311 312 313
318 320 321 322 322 323 323 322 321 324 324 323 324 325 322 325 323 323 322 321 317 316 312 289 291 291 292 292 291 310 323 319 318 317 318 319 318 319 319 319 318 317 319 320 302 297 303 317 317 316 315 315 314 312 304 293 291 294 304 310 311 311 310
313 314 315 316 317 319 320 323 325 325 323 323 323 323 321 322 323 322 320 319 317 316 314 295 290 291 292 292 295 320 318 317 316 316 317 318 318 321 318 319 318 316 319 314 296 295 295 298 318 315 314 313 313 311 308 303 294 291 291 290 290 289 289
312 312 312 313 314 316 318 320 322 323 323 323 323 321 321 321 321 319 318 317 317 315 314 302 290 292 293 292 301 319 316 314 315 315 316 317 318 315 309 301 313 318 317 310 291 293 291 304 316 315 313 311 309 310 308 306 304 300 290 290 289 289 290
311 312 312 313 315 315 316 316 317 319 319 318 318 318 318 317 316 317 317 317 312 313 313 305 289 292 291 293 298 317 314 312 314 314 315 315 317 315 310 303 297 303 307 300 290 292 290 300 314 314 312 311 308 309 310 307 307 305 304 305 303 302 300
312 312 312 313 315 314 315 316 316 317 316 315 315 315 315 315 315 314 315 315 313 312 311 314 305 290 293 293 292 311 319 314 313 314 313 315 315 314 311 307 299 290 290 289 290 290 291 292 311 314 312 309 308 307 310 309 308 308 308 306 306 306 305
312 312 313 313 314 313 314 314 316 314 314 314 314 314 313 313 312 312 313 314 311 312 312 312 312 290 293 293 292 295 317 313 313 313 312 311 313 313 311 308 303 291 289 290 290 290 292 292 296 308 306 305 303 303 302 307 303 294 303 304 305 304 304
311 311 311 312 312 312 313 313 313 314 312 312 312 312 312 311 310 310 312 312 311 312 314 308 315 294 291 293 292 290 311 314 317 313 311 312 311 312 309 306 303 293 289 290 290 290 291 292 294 302 298 290 289 290 304 304 305 304 304 304 304 303 303
309 310 311 311 310 310 311 312 312 312 312 312 310 310 310 310 309 309 310 310 311 313 315 313 304 310 294 291 292 293 291 304 299 320 311 310 311 309 307 303 296 290 289 290 290 290 291 291 294 296 288 290 290 287 292 303 304 304 303 303 303 301 300
308 308 309 310 309 309 309 310 310 311 311 311 310 310 309 310 308 308 307 309 310 311 314 314 303 302 303 289 292 292 293 293 297 311 313 311 311 308 305 302 296 289 289 289 289 289 290 292 294 288 289 289 288 290 300 303 302 303 300 299 298 298 300
Wind_Speed
6 7 6 5 5 5 5 5 5 4 5 5 4 4 4 4 4 4 5 4 2 3 3 4 4 4 4 4 4 3 3 4 5 3 2 2 3 3 3 2 3 2 1 1 2 1 2 4 5 4 6 6 6 6 6 7 6 6 5 6 6 7 7
7 6 6 5 5 5 5 4 5 5 5 4 5 4 4 3 3 5 3 4 4 3 2 4 5 6 6 6 6 5 5 4 4 2 2 2 3 0 1 4 3 3 2 4 2 3 2 4 5 5 6 6 7 7 6 7 6 6 5 6 7 8 7
6 6 6 6 6 5 5 5 5 5 5 4 4 5 4 3 3 3 4 5 5 5 6 5 4 6 6 7 7 7 6 6 4 5 4 3 3 2 2 2 2 2 2 2 3 1 4 3 3 6 6 7 8 7 7 7 8 7 7 6 7 8 8
7 6 7 7 6 6 6 6 5 5 5 5 5 4 4 5 5 5 4 5 5 4 4 4 4 4 5 6 6 7 8 7 5 5 5 5 3 5 2 3 4 2 2 1 2 5 4 2 1 5 6 8 9 8 7 7 8 8 8 7 7 7 8
7 6 7 7 7 7 6 6 5 6 6 5 5 5 4 5 4 4 5 5 5 5 5 5 5 6 5 5 6 6 7 8 7 6 5 7 7 5 6 1 2 2 3 1 3 4 4 2 3 7 7 9 9 8 7 6 8 9 8 8 8 8 8
6 7 7 7 7 7 6 6 7 6 6 6 5 5 5 4 4 4 5 5 5 5 5 5 5 5 5 6 6 7 7 8 7 7 7 7 7 5 5 3 3 4 4 5 4 2 2 7 5 5 7 7 8 7 6 5 6 7 7 7 7 7 8
5 7 6 7 7 6 6 7 7 6 6 6 6 6 5 6 5 6 6 6 5 6 6 6 6 6 5 6 7 7 7 7 7 7 7 7 7 7 5 5 6 6 5 5 5 2 1 2 4 6 6 6 6 6 6 7 7 7 7 7 7 7 7
5 6 6 6 6 6 6 7 6 6 7 6 6 6 6 6 6 6 6 6 6 5 5 5 5 5 6 6 6 6 6 6 6 7 7 7 7 7 6 5 5 6 6 5 4 4 4 4 5 5 5 6 7 7 7 5 7 7 7 6 7 7 7
5 5 5 6 6 6 6 6 7 7 7 7 7 6 6 6 6 6 6 6 5 5 5 5 5 5 5 6 6 6 6 5 6 7 6 6 6 7 6 5 6 6 5 6 5 5 5 4 5 4 3 4 7 6 5 6 5 6 5 6 6 7 7
5 5 6 7 7 6 6 6 6 7 8 7 7 6 6 6 6 6 6 6 5 5 5 5 5 5 5 6 6 6 6 6 6 6 5 5 6 6 5 6 6 6 6 5 6 5 4 3 3 1 1 4 5 4 3 5 4 4 5 5 5 6 6
6 5 6 7 7 6 6 5 5 7 8 8 7 6 6 7 6 6 6 5 5 4 5 5 6 6 5 5 6 6 6 5 5 5 5 6 6 6 6 6 6 6 6 6 6 5 4 3 3 2 2 2 3 5 0 5 6 3 4 3 4 5 5
5 6 7 7 7 7 7 6 6 6 8 8 8 7 7 7 6 6 6 6 5 5 5 5 4 5 6 5 5 5 5 5 5 5 5 5 5 5 5 6 6 5 5 5 5 5 4 3 2 3 3 3 4 4 4 7 6 4 3 4 3 4 4
7 8 8 7 7 8 7 7 7 7 7 7 8 9 8 7 7 7 6 6 6 5 5 4 4 4 4 4 5 5 4 4 5 5 4 4 4 4 5 6 6 5 4 4 5 4 5 4 5 4 3 4 4 3 4 5 7 6 4 4 3 4 4
10 8 9 9 8 8 6 6 6 6 7 7 7 8 8 9 8 7 7 7 6 6 5 5 4 4 4 4 4 4 4 5 5 5 5 4 4 4 5 5 5 5 5 4 3 4 4 4 3 4 4 4 4 3 4 5 5 6 3 2 2 3 3
8 7 9 9 8 8 7 7 6 6 6 7 7 8 9 8 8 8 8 7 7 6 6 5 5 4 5 5 4 3 3 3 5 4 3 4 4 3 3 5 6 5 5 4 6 3 3 2 1 3 4 4 4 3 2 4 4 4 5 2 2 3 4
8 8 9 9 9 8 8 8 7 7 6 8 8 8 9 8 9 9 8 8 8 7 6 6 4 5 5 5 5 4 3 4 4 4 3 3 4 4 3 3 3 3 2 3 3 4 3 5 5 5 4 5 5 3 3 3 2 5 3 3 0 3 3
9 9 9 7 9 9 8 8 8 8 7 7 8 8 9 9 9 9 8 8 8 7 7 6 6 5 6 5 5 5 4 4 4 4 3 3 4 3 3 3 3 2 2 1 2 2 2 1 2 4 2 3 2 5 4 1 1 3 1 1 0 3 5
8 9 8 7 9 9 9 8 8 9 8 8 8 8 8 8 9 9 8 9 8 8 8 7 7 6 5 5 5 5 5 5 4 4 4 2 2 2 3 2 3 3 2 2 2 1 3 2 2 2 1 1 3 2 1 3 4 1 0 2 2 2 3
8 9 8 7 8 9 9 9 9 8 8 8 8 8 8 8 8 8 8 8 8 8 8 8 8 7 7 6 5 5 4 5 4 4 4 4 6 3 3 4 3 3 3 2 2 2 2 2 1 2 2 7 5 3 3 3 3 2 3 2 2 2 2
7 6 8 8 7 8 10 9 9 9 8 9 9 8 8 8 7 8 7 6 7 7 7 7 7 7 7 7 7 5 5 6 6 3 4 6 6 6 6 5 4 4 4 4 3 3 3 2 2 3 3 2 5 4 2 4 3 2 2 3 2 3 3
7 7 7 8 8 6 4 7 8 8 9 10 9 9 9 9 7 8 8 7 8 7 7 6 6 6 6 7 6 8 8 7 7 8 7 7 7 7 7 6 6 5 5 4 5 4 3 3 2 2 2 0 1 1 3 3 2 3 5 3 4 4 4
6 6 7 7 7 7 7 6 7 8 8 9 8 9 9 9 9 9 9 9 9 8 7 7 5 4 5 8 6 7 8 8 8 8 8 8 8 8 7 6 6 6 3 7 10 8 6 3 2 3 3 3 3 4 5 5 4 5 5 5 5 5 5
5 6 6 6 5 6 6 6 5 3 3 4 5 7 7 8 9 9 8 10 7 6 5 4 6 6 4 3 5 6 7 8 6 9 9 9 8 6 7 6 4 10 11 9 8 7 6 2 4 5 3 2 2 4 4 5 5 5 6 6 5 5 6
7 5 3 4 5 6 5 4 4 1 3 5 3 7 8 7 7 6 2 7 8 7 6 2 8 5 1 4 3 7 7 8 8 5 6 9 7 8 5 5 6 8 8 7 6 8 7 5 4 6 6 6 4 4 4 5 6 5 6 6 6 6 7
2 6 7 6 5 5 4 5 4 3 6 7 5 6 9 6 4 3 3 9 7 8 3 3 4 3 2 4 5 5 7 5 4 3 5 9 7 7 1 4 5 5 5 5 5 8 7 7 7 5 4 4 6 7 4 2 4 4 4 5 6 5 6
3 3 2 3 4 2 2 3 3 4 5 6 4 4 4 5 2 4 5 9 10 6 2 2 2 3 2 4 6 5 5 5 5 2 4 6 4 5 8 5 4 4 4 6 4 5 6 8 7 4 2 1 0 2 4 5 4 2 5 6 6 5 5
3 3 3 3 4 4 3 3 3 4 4 2 4 8 9 9 4 7 6 6 8 4 2 1 1 3 3 5 6 3 5 4 5 4 5 7 10 11 6 5 6 6 5 6 5 4 4 5 7 5 5 5 6 4 3 5 4 4 2 5 6 6 3
2 2 2 2 3 5 4 2 5 6 7 6 8 8 6 5 6 6 5 2 4 0 1 4 3 2 3 5 6 5 6 6 9 10 8 6 3 3 3 1 2 3 6 4 4 6 1 3 6 5 4 5 6 5 5 4 2 3 4 5 5 3 2
2 2 1 1 2 3 6 7 8 5 3 6 7 6 7 6 7 6 3 4 5 6 4 5 5 6 5 7 4 5 6 5 4 5 5 3 3 3 2 2 2 2 5 6 7 10 7 5 3 3 4 4 5 4 7 4 4 7 8 6 5 5 5
3 3 1 1 2 2 2 3 3 4 6 7 5 4 4 5 5 5 7 8 9 9 6 7 7 7 7 7 5 5 6 5 4 3 4 4 2 6 6 6 2 2 5 6 5 6 6 6 4 4 4 4 4 4 4 4 6 8 9 10 9 9 8
4 2 2 3 3 1 2 2 4 4 4 4 5 5 5 6 6 6 8 7 7 7 7 6 9 8 9 9 7 6 5 6 3 3 3 2 5 6 7 11 9 3 7 6 6 9 9 5 4 3 4 4 4 5 6 5 4 3 5 5 5 4 4
5 5 5 4 3 2 3 4 3 4 4 4 4 5 6 5 6 7 7 9 6 6 6 5 7 7 7 8 7 6 7 5 4 4 4 3 4 6 6 9 13 11 9 7 8 8 9 6 5 3 2 3 5 7 5 7 5 5 4 4 4 3 4
4 5 6 5 4 5 4 4 5 4 5 6 6 6 8 7 8 7 7 6 7 7 7 6 7 8 10 10 10 5 7 3 4 4 3 5 5 5 6 5 8 9 10 9 9 9 8 9 6 2 1 3 3 1 7 4 5 2 1 3 4 4 6
6 6 7 5 4 5 6 5 4 5 5 5 5 5 6 7 7 7 7 8 8 8 7 8 7 10 9 10 5 2 6 4 5 5 5 5 5 5 5 6 6 6 8 9 9 10 11 12 12 9 8 7 6 5 4 3 3 1 4 5 6 6 6
5 5 6 6 7 6 6 6 6 5 6 7 7 7 7 8 8 8 8 8 8 9 8 8 8 7 8 8 4 2 4 3 2 3 4 5 5 4 8 6 6 5 8 10 10 10 11 12 11 8 7 6 6 9 4 4 1 5 6 5 6 6 5
5 4 5 6 7 8 8 7 7 7 7 8 9 9 8 9 9 9 8 8 8 8 7 6 8 8 8 7 3 4 6 7 5 4 4 4 4 7 8 8 7 7 10 10 10 10 10 10 9 6 5 6 5 3 4 5 4 3 5 5 5 5 6
7 6 6 6 6 7 8 9 9 8 9 9 9 10 9 10 11 11 11 10 9 8 8 8 5 5 6 4 1 4 5 8 7 3 5 4 5 10 8 8 8 10 11 11 10 10 11 9 7 5 3 2 2 4 5 4 4 4 3 4 5 6 6
Wind_Direction
124 119 122 104 100 105 107 113 111 113 113 107 110 106 106 80 66 73 56 34 353 59 47 49 30 44 37 44 42 38 27 61 360 18 78 53 327 48 55 124 151 186 163 74 222 135 128 135 128 103 91 82 69 66 70 88 98 110 89 88 89 77 79
125 131 125 125 119 117 124 118 107 103 94 88 87 76 67 86 98 82 61 62 32 20 44 83 41 40 46 43 39 35 31 43 61 60 33 86 85 17 189 119 202 213 207 202 158 243 232 145 119 125 110 103 95 81 80 86 87 101 129 137 136 122 98
135 133 133 126 127 135 113 109 117 119 110 106 87 71 70 62 73 90 73 54 50 30 35 48 74 62 48 51 48 44 38 37 37 40 44 26 113 167 333 7 238 140 201 54 296 20 338 322 118 127 125 117 99 101 120 116 107 92 88 82 85 87 99
137 136 134 139 136 138 138 140 135 123 115 105 103 89 73 77 60 53 61 74 73 52 51 68 64 72 72 56 49 57 48 46 36 49 46 58 34 61 31 4 21 40 77 29 91 99 196 187 122 123 111 107 108 100 82 90 102 100 100 105 99 91 89
144 146 147 149 152 145 144 142 127 124 119 115 106 95 85 86 87 89 81 73 64 64 65 51 55 67 66 66 56 44 52 53 47 56 42 42 37 62 72 163 136 151 102 210 90 146 158 142 206 136 135 118 107 102 112 109 103 111 111 107 103 96 87
157 153 156 155 155 146 149 144 145 135 135 122 105 104 100 96 91 79 80 82 80 61 61 72 64 62 74 66 65 68 56 55 53 48 50 50 45 42 61 74 52 50 96 102 109 260 175 173 191 121 110 101 92 93 97 100 83 71 70 72 82 89 93
168 163 162 157 155 153 149 148 149 142 129 121 120 115 115 104 92 88 81 81 85 89 80 65 51 41 58 84 68 59 64 57 51 54 54 50 43 35 45 46 39 60 54 56 103 120 326 92 116 100 104 106 122 130 127 147 138 110 92 83 77 73 74
168 171 167 154 156 151 151 154 144 136 132 129 123 114 112 108 100 91 85 85 87 86 84 86 85 68 61 68 68 65 68 60 61 66 57 52 52 51 37 41 69 48 31 57 64 62 93 49 80 99 115 133 150 163 170 102 88 84 101 79 82 88 86
181 176 158 157 151 152 154 150 142 140 130 126 125 127 124 118 116 113 104 93 91 94 90 87 86 84 76 76 76 69 66 69 69 62 70 65 59 52 41 47 60 59 47 32 54 39 53 94 121 130 151 156 137 114 122 121 94 95 110 107 84 79 98
178 181 160 156 150 150 148 145 146 136 129 130 131 133 128 126 120 110 109 105 98 93 98 101 101 98 91 86 86 79 76 73 71 69 63 69 62 49 54 45 52 60 63 55 41 52 44 14 77 84 3 13 3 95 121 100 104 107 68 57 97 87 79
178 175 160 154 150 147 145 148 137 142 144 137 140 140 135 127 122 121 121 117 108 101 97 93 96 100 98 91 84 83 85 86 83 78 75 71 60 61 50 53 59 66 50 54 59 51 58 41 25 71 22 22 9 345 129 116 102 73 104 67 72 102 107
190 168 162 156 151 152 155 149 155 160 145 149 145 143 143 137 135 130 123 124 122 116 110 108 105 97 101 103 103 96 85 77 79 83 73 64 67 66 60 64 69 70 65 58 62 55 42 35 112 107 68 20 74 356 20 119 135 81 59 90 70 63 80
200 177 163 161 159 156 162 159 164 166 153 152 151 150 149 148 145 146 139 128 135 132 128 119 108 108 105 102 107 99 96 105 98 92 87 80 90 91 86 73 54 41 36 83 70 71 78 49 26 52 80 91 83 32 21 41 92 108 83 104 109 123 116
199 173 164 163 167 165 166 162 164 164 161 157 160 161 154 157 157 154 149 150 140 141 135 130 126 123 109 97 94 107 116 112 108 89 97 104 82 67 74 86 76 63 48 44 69 70 41 62 59 43 52 74 83 47 54 93 104 109 109 102 141 89 64
181 173 168 168 175 169 166 164 164 167 173 161 172 172 161 159 162 161 158 157 149 146 151 140 146 132 120 119 111 106 123 103 83 86 71 77 75 71 50 57 62 47 41 40 351 5 74 344 90 108 60 47 80 77 52 93 104 116 116 167 131 118 126
173 186 180 176 177 169 163 166 170 178 183 171 182 178 166 166 168 166 164 162 162 155 155 150 151 147 137 147 141 126 122 120 121 131 140 135 128 99 89 95 100 87 58 48 33 49 18 -0 10 58 28 38 54 50 63 64 122 127 135 108 240 172 88
180 178 180 184 177 165 165 169 181 187 190 178 184 180 165 176 171 171 170 169 163 166 156 159 161 163 163 157 158 153 146 144 159 168 162 173 128 166 126 123 113 129 108 105 35 66 61 100 17 72 137 113 73 51 42 3 352 7 68 174 138 262 122
178 178 185 193 180 172 171 177 183 192 180 189 184 176 172 182 177 174 176 176 169 173 167 168 170 166 162 173 172 165 171 162 170 180 175 160 126 172 162 189 143 135 145 123 149 241 91 343 356 104 51 166 133 83 38 336 346 292 270 269 113 342 341
177 179 182 192 190 184 181 184 181 192 182 187 182 182 187 183 186 180 182 189 183 180 182 177 175 178 169 179 172 177 187 166 186 191 181 193 183 183 180 194 170 169 171 180 153 71 54 110 39 16 41 12 37 96 14 4 300 10 306 283 209 252 217
165 181 182 181 193 198 191 192 184 192 185 195 182 192 194 190 191 198 187 218 195 190 192 186 189 180 177 179 186 171 196 198 194 216 202 203 204 188 191 195 191 186 190 188 170 166 161 113 76 50 29 53 13 30 353 286 302 297 307 290 280 260 298
170 186 185 182 181 191 234 210 198 199 197 203 195 200 197 201 193 219 181 222 219 201 199 190 194 185 201 190 185 194 210 209 211 208 215 218 208 202 203 202 196 202 200 196 194 172 157 172 160 200 166 209 29 336 261 257 260 266 249 264 268 290 263
187 196 193 184 188 190 195 213 218 220 211 211 206 204 206 208 207 209 216 203 211 203 199 193 204 198 216 226 206 216 218 217 224 226 214 216 212 209 207 199 205 207 153 78 71 60 44 54 211 206 193 196 230 236 238 251 250 248 257 270 267 249 262
180 191 188 185 193 198 194 211 216 248 292 276 231 222 226 223 219 217 219 212 213 205 190 194 87 75 33 4 243 233 228 229 237 239 228 220 210 212 198 198 157 99 112 126 130 120 120 147 299 314 342 324 245 237 235 253 260 268 274 271 273 282 277
177 188 200 192 212 209 203 213 207 188 357 336 322 319 289 222 224 237 259 2 312 331 307 56 96 67 50 342 312 249 243 232 231 262 294 252 228 212 198 205 151 123 124 129 149 159 164 169 216 278 319 64 64 5 317 265 250 269 290 284 284 291 292
158 158 166 187 187 206 194 202 169 177 191 224 236 226 239 239 253 252 217 218 210 216 208 336 107 89 10 314 304 286 264 259 253 35 326 324 11 310 297 223 154 163 187 185 201 181 188 198 202 220 267 351 45 68 63 21 331 308 298 299 284 296 319
120 129 166 172 163 147 173 166 187 194 216 232 260 286 289 262 254 270 256 241 212 139 170 116 93 126 236 273 282 294 259 352 34 149 177 186 238 250 240 218 178 166 151 140 211 209 190 184 197 176 9 30 95 81 72 69 56 335 309 319 319 298 296
141 143 161 191 157 187 193 198 207 223 204 212 243 245 236 230 244 253 263 288 353 11 168 189 126 170 218 249 264 263 240 204 210 218 198 205 203 204 195 185 169 177 141 169 201 207 210 171 153 173 198 214 227 145 112 108 94 73 335 280 290 292 326
128 133 162 183 175 165 213 233 239 226 217 200 225 224 240 245 234 229 216 163 158 172 329 138 159 172 229 229 245 246 242 203 203 203 199 184 166 137 128 90 58 112 149 130 49 23 10 181 171 168 179 199 216 198 211 222 238 247 222 218 245 254 70
76 148 166 169 219 203 198 204 212 198 211 215 213 209 219 214 218 197 217 176 130 204 183 182 170 193 189 220 212 231 232 226 218 181 162 146 181 141 138 124 152 116 84 83 44 42 24 340 270 205 181 176 195 114 63 53 32 33 30 35 41 44 53
48 315 354 251 226 215 189 205 214 197 205 225 212 187 187 216 201 191 179 179 177 169 162 183 189 186 201 204 204 236 230 215 203 181 147 173 138 64 38 11 5 92 96 79 43 32 35 353 273 228 215 193 173 139 129 97 62 50 54 64 68 71 77
347 347 289 278 261 222 230 217 210 197 209 193 202 189 194 207 204 186 190 186 187 165 159 160 183 192 202 196 219 245 226 216 178 182 142 176 101 89 55 31 13 63 89 79 42 35 17 349 265 233 207 199 197 214 156 159 150 104 95 96 86 99 119
331 324 312 306 333 300 262 256 236 194 195 207 202 186 187 182 191 195 189 206 139 160 156 160 195 201 212 216 226 245 236 203 163 197 167 165 130 107 88 52 44 53 72 78 59 52 29 355 298 231 246 222 208 227 184 165 169 159 181 192 187 188 206
329 319 310 331 318 297 276 243 227 210 214 226 211 207 198 204 194 198 186 166 157 182 159 164 179 211 214 227 233 280 276 193 176 172 215 164 164 130 111 98 66 56 81 79 72 60 47 18 325 264 263 303 291 138 118 131 44 28 171 252 267 240 250
342 326 310 304 300 286 283 274 247 239 237 239 238 210 210 229 209 204 182 182 185 189 172 171 165 193 217 234 239 252 276 224 184 185 206 173 177 162 148 102 92 62 81 82 77 67 58 42 34 49 50 63 52 5 326 133 120 75 261 251 247 251 250
327 311 313 309 304 290 270 267 268 244 242 244 244 235 216 221 220 217 203 198 193 194 164 169 174 185 217 240 243 280 299 280 48 207 188 211 200 192 121 119 114 83 82 81 77 74 65 59 54 68 64 75 46 32 15 335 224 207 228 236 255 267 276
289 290 295 302 298 287 282 272 260 256 252 246 248 246 224 223 226 221 218 215 206 198 176 165 167 181 202 240 264 284 291 304 82 284 223 213 206 115 105 105 100 98 92 86 79 77 82 87 78 85 91 63 58 10 287 259 271 292 279 283 300 299 295
274 273 272 275 278 282 277 274 267 254 246 244 245 240 233 227 226 225 218 213 213 202 188 178 154 166 172 180 77 291 334 19 35 347 311 204 149 118 128 128 127 126 106 99 87 75 64 61 88 111 107 144 252 276 261 257 240 247 268 279 277 273 276